Theta_e
314 315 315 317 315 314 318 323 324 321 321 325 326 325 324 317 312 322 326 327 331 331 329 330 332 333 333 325 325 327 330 331 331 331 329 330 333 331 331 329 328 328 328 329
310 315 315 315 316 316 318 323 322 319 320 324 325 327 324 318 313 307 308 316 323 323 326 329 331 332 334 332 324 325 326 328 328 327 326 326 326 326 326 327 328 330 330 329
313 314 314 314 317 318 313 318 320 321 318 318 323 323 318 316 313 306 306 306 309 312 317 317 326 329 331 331 328 325 325 326 326 327 327 327 327 327 328 328 330 330 331 331
311 313 314 314 316 317 319 315 317 318 319 322 317 325 314 313 313 306 304 305 306 308 312 313 318 319 320 323 326 329 329 328 326 325 326 327 328 329 329 330 331 331 331 331
307 311 312 312 314 315 317 315 315 315 314 317 318 320 317 313 313 310 306 304 304 306 308 309 310 311 313 317 320 322 324 328 330 330 329 329 329 331 333 333 333 331 332 330
308 308 309 309 311 312 312 315 314 314 315 318 319 319 317 316 314 310 307 306 304 307 307 306 306 310 310 311 313 318 320 321 325 327 328 331 332 333 333 332 330 328 326 326
306 307 307 309 311 310 312 313 316 313 309 316 316 318 317 312 310 307 306 306 306 306 307 307 306 307 308 308 309 311 311 311 312 313 315 320 323 324 325 324 323 323 323 319
311 307 308 308 310 312 312 312 312 313 317 316 314 318 315 308 308 307 306 306 305 305 306 307 306 307 307 307 308 308 309 310 310 310 311 311 312 314 315 315 314 314 313 315
312 311 307 308 309 309 311 312 311 312 304 312 310 307 309 309 307 305 305 306 306 305 305 306 307 307 307 307 307 308 308 308 309 309 310 310 311 311 311 312 312 313 314 315
310 312 309 309 307 307 310 308 310 308 309 313 311 307 309 308 307 306 305 304 304 304 305 305 305 307 307 306 306 306 306 306 307 308 309 310 311 312 312 313 313 312 312 312
309 310 309 307 309 310 308 309 309 309 311 313 314 309 304 307 306 305 304 304 303 302 301 303 305 307 307 306 305 305 305 305 304 304 305 306 307 309 310 311 311 311 311 312
308 308 306 311 307 307 309 310 309 307 308 309 308 310 305 306 306 304 303 303 302 302 301 301 302 304 305 306 305 305 304 304 303 303 303 303 303 304 306 307 308 308 309 309
308 306 297 303 305 305 309 309 309 307 307 311 308 309 304 305 303 302 302 302 301 300 299 298 300 300 301 303 304 305 304 304 303 303 303 303 303 303 303 303 304 304 304 304
306 306 301 302 304 306 308 310 309 308 305 309 309 307 305 306 303 301 301 301 299 298 298 297 298 298 299 300 301 302 304 303 303 303 303 302 302 302 302 302 302 302 301 301
302 299 300 302 301 303 306 308 308 311 308 307 308 310 306 308 303 301 301 300 299 298 298 297 296 297 298 299 299 299 301 303 303 303 303 303 302 302 301 301 301 301 300 299
299 296 296 294 298 298 300 302 303 305 308 309 309 309 305 304 300 299 300 299 298 298 297 296 296 297 297 297 297 298 298 300 302 303 303 302 302 302 301 301 300 300 299 299
298 292 288 291 293 291 291 294 299 301 303 305 308 306 302 299 298 300 299 297 298 298 297 296 295 296 297 297 297 297 298 298 300 302 302 302 302 301 301 301 300 300 299 298
295 290 285 289 285 290 295 293 295 298 299 300 301 301 300 297 298 298 298 297 297 297 296 296 296 297 297 297 297 297 297 298 299 300 301 301 301 301 300 299 299 299 299 298
297 296 289 291 280 290 294 296 297 298 297 296 298 297 297 298 296 298 298 298 297 296 296 297 297 296 296 296 297 297 298 298 298 298 299 300 300 300 300 299 299 298 297 297
297 294 292 286 286 287 292 298 297 295 292 295 296 297 297 295 294 292 295 295 295 296 296 297 297 296 296 296 296 296 297 297 296 297 298 298 299 299 299 298 298 297 297 296
292 291 292 290 285 290 292 295 295 292 294 297 297 297 296 295 294 293 295 294 296 296 296 297 296 296 296 296 295 295 296 296 296 296 296 297 298 297 297 297 296 296 295 295
296 293 295 288 286 293 294 295 298 295 295 297 297 297 297 296 295 295 294 293 295 295 296 296 295 296 296 295 294 294 294 295 295 295 296 296 296 296 296 296 295 295 294 293
294 295 294 295 295 295 294 296 295 294 295 297 297 297 296 294 294 293 293 293 294 295 295 296 295 295 296 295 294 294 294 294 294 294 294 294 294 294 294 295 295 294 293 292
294 292 294 296 296 294 294 294 294 295 296 295 294 294 294 294 293 292 292 291 293 295 295 295 294 295 295 296 295 294 293 294 293 293 293 294 294 294 294 293 294 295 295 294
293 293 293 293 294 294 294 293 294 294 293 293 292 293 293 293 292 292 291 291 293 294 295 294 294 294 295 296 295 294 293 293 293 292 292 293 296 296 295 295 297 296 295 295
293 294 295 295 294 295 295 296 295 295 294 293 292 293 292 292 291 292 291 294 294 294 295 294 294 294 295 295 295 294 293 293 292 292 292 292 292 292 293 293 293 292 291 290
Wind_Speed
0 3 6 7 4 5 6 13 8 5 3 2 8 12 7 14 13 5 4 5 5 4 5 11 17 20 18 25 27 31 32 33 31 29 27 27 29 28 28 23 19 18 19 18
4 9 12 13 6 3 9 11 6 8 7 3 7 6 4 9 8 9 11 8 5 4 5 4 7 14 20 17 25 29 30 31 30 28 26 26 26 23 23 22 21 19 17 17
3 3 6 9 5 3 5 4 3 5 6 13 6 4 6 7 10 9 9 5 7 6 6 8 8 5 8 10 16 24 28 28 29 28 26 23 21 20 16 21 19 18 18 19
2 4 4 7 4 8 5 11 4 9 3 4 4 2 2 7 15 9 11 11 9 8 7 8 9 11 8 6 5 6 14 17 19 22 23 23 20 19 23 20 17 16 15 15
4 4 5 5 6 6 3 8 5 2 6 5 5 4 2 3 6 12 12 9 8 8 6 9 10 12 8 5 6 7 5 5 8 15 17 19 22 20 19 15 16 14 14 14
2 3 2 0 2 4 7 5 5 3 2 3 2 2 2 1 1 9 10 8 8 8 8 7 6 9 9 6 5 3 1 2 3 6 10 15 22 22 19 14 12 10 10 9
6 4 5 4 4 2 7 6 3 4 4 2 2 3 0 2 5 6 7 8 8 6 6 5 6 8 5 5 6 5 4 2 3 5 7 9 11 12 12 11 11 10 11 10
4 6 6 6 3 1 2 3 2 2 1 1 4 2 2 5 6 5 7 5 7 7 5 6 8 11 11 11 9 4 2 3 2 3 4 4 6 6 6 7 7 7 7 7
5 3 4 3 1 1 4 3 3 4 2 3 3 2 3 5 3 4 6 7 9 7 8 8 9 11 12 11 10 8 5 2 0 1 2 1 1 1 2 2 3 3 4 4
3 4 2 4 3 3 1 2 3 3 2 3 3 3 2 1 4 5 6 7 7 7 8 7 9 11 10 10 10 9 7 5 4 3 2 1 2 2 2 2 3 3 3 3
3 1 5 3 5 3 5 3 4 4 3 2 3 2 3 2 4 5 6 6 6 7 8 8 13 15 12 10 9 8 7 6 5 3 3 2 1 1 3 4 5 5 5 4
2 2 2 1 4 3 2 1 2 3 4 2 2 0 4 4 3 4 6 7 7 7 7 8 14 16 15 13 11 9 8 7 6 4 2 1 2 0 2 3 4 4 4 5
1 1 3 7 5 4 5 4 3 4 3 2 3 3 2 6 5 6 6 7 7 8 9 8 14 15 19 21 16 13 10 8 7 6 4 3 2 3 1 1 1 2 2 3
3 1 4 5 2 2 2 4 4 2 3 2 1 3 3 6 5 4 4 5 6 6 7 6 9 14 21 21 21 20 15 10 8 8 7 7 6 4 2 3 3 3 3 4
3 2 1 1 4 2 1 1 3 2 0 3 2 2 5 2 2 2 3 5 7 7 8 7 7 11 19 23 23 22 17 14 11 10 9 9 8 7 6 5 4 4 4 4
2 2 2 3 4 5 2 3 1 2 2 2 0 2 5 3 3 4 5 5 6 6 7 7 7 13 16 19 22 22 22 19 15 12 14 12 11 9 8 7 5 5 4 3
3 3 3 4 4 5 5 4 5 2 2 4 3 5 1 3 5 4 6 5 4 4 5 7 8 13 19 20 20 21 21 20 17 14 13 14 13 13 13 13 12 10 6 5
4 3 2 2 4 2 6 2 2 5 4 6 2 3 2 2 3 5 3 4 3 4 4 5 7 12 16 17 18 20 19 18 16 15 12 11 13 14 14 13 13 14 13 10
3 4 3 3 2 5 4 1 4 4 2 2 2 3 2 4 3 2 1 2 3 4 8 8 9 12 12 13 15 17 18 18 16 14 13 11 11 13 14 14 13 11 9 12
4 6 3 3 4 5 4 1 0 3 3 2 3 3 6 4 2 3 4 3 7 7 9 11 11 13 14 14 14 16 17 17 17 17 14 11 9 10 13 13 14 12 12 13
2 2 4 2 2 7 8 5 2 6 5 2 4 4 5 3 4 4 3 7 9 11 10 9 9 11 12 12 13 14 14 15 15 13 10 7 5 5 7 10 11 11 11 11
5 5 3 3 2 7 6 5 5 4 1 2 2 1 2 2 4 5 7 7 11 15 15 11 11 12 11 10 10 10 10 10 9 8 6 5 3 3 6 10 11 11 11 12
2 6 5 8 6 3 4 2 4 3 3 2 2 4 4 6 6 7 6 7 12 15 16 14 14 16 15 11 10 10 9 7 5 4 1 2 4 5 6 10 11 10 9 9
4 4 3 3 4 7 7 5 4 5 5 3 4 5 3 6 7 8 7 8 14 19 19 19 16 17 19 13 12 11 9 7 4 5 5 6 7 8 10 10 9 9 9 6
4 7 6 4 5 5 6 6 5 4 4 5 4 5 6 5 8 7 6 10 17 20 23 23 19 21 23 15 16 13 11 9 9 8 10 12 11 12 14 14 14 14 11 12
5 6 5 5 6 5 4 3 4 4 5 7 6 4 7 8 8 10 9 19 20 23 25 22 20 20 22 18 17 15 15 13 12 13 13 15 15 15 15 16 15 15 14 13
Wind_Direction
251 300 3 17 120 282 272 251 142 71 62 113 176 137 356 355 3 39 120 237 212 262 326 240 210 202 194 209 213 214 213 215 217 220 225 226 231 237 240 245 242 242 256 260
351 8 353 342 44 230 269 121 105 77 79 81 147 182 351 359 333 28 22 13 35 5 6 333 234 210 206 205 216 218 220 222 221 223 220 221 226 236 237 242 251 252 254 258
45 296 11 360 34 11 3 23 76 110 90 47 81 64 15 320 344 31 40 325 50 36 30 21 31 124 200 208 214 218 223 227 229 226 226 225 231 234 234 243 252 253 260 261
25 307 338 354 345 356 20 339 90 117 52 125 0 134 48 356 323 351 21 7 20 31 25 35 30 42 65 91 123 189 218 225 229 231 232 228 222 217 232 242 247 254 256 263
293 329 358 21 339 348 5 322 20 121 100 122 16 87 344 27 306 349 348 358 12 23 38 35 17 38 38 63 91 102 114 177 214 229 234 236 236 241 241 241 245 242 255 265
295 293 76 60 7 19 322 336 46 44 76 65 77 106 312 109 291 320 324 347 18 23 32 50 60 44 30 36 62 63 318 296 261 252 238 235 241 246 243 228 221 229 240 252
337 339 329 17 25 87 30 23 15 10 31 120 85 62 335 294 296 281 287 339 355 28 28 35 55 56 41 27 40 69 112 182 221 231 238 227 226 217 214 220 227 239 254 257
10 346 0 350 46 321 351 93 124 199 39 67 355 73 87 188 213 273 322 355 6 20 19 20 29 31 27 22 25 40 121 166 172 195 221 223 223 225 229 232 236 242 242 239
346 321 331 329 335 67 317 50 172 104 25 60 343 33 42 293 275 10 13 25 24 6 3 7 19 30 25 20 17 15 9 12 51 173 176 173 144 181 194 198 198 198 194 205
5 307 358 305 343 351 43 231 41 20 55 67 16 24 130 59 40 25 20 28 20 4 10 10 13 18 15 12 7 11 8 1 5 8 29 56 105 115 104 126 131 151 160 159
18 35 295 52 21 342 350 22 56 114 110 132 124 328 225 106 22 34 28 29 29 21 10 2 3 8 6 3 0 358 0 349 346 354 20 32 32 132 146 154 147 156 156 154
342 12 300 239 279 278 262 88 96 101 335 36 80 299 87 44 344 36 37 29 33 38 25 17 18 20 13 3 356 351 346 331 324 322 322 329 320 212 180 164 159 161 161 168
310 4 4 348 2 12 32 353 65 92 90 58 103 200 192 24 27 31 52 33 29 29 26 17 19 17 21 22 10 357 346 336 328 309 297 280 242 227 231 210 176 162 183 182
28 31 154 193 208 266 11 7 13 65 98 159 174 152 216 33 61 59 33 63 56 44 30 19 17 10 16 20 19 15 360 339 322 310 306 300 294 287 273 226 206 192 204 213
75 133 56 335 341 336 331 348 10 57 157 136 158 143 165 42 163 132 61 52 44 25 19 10 5 1 10 10 7 6 4 359 327 297 282 277 277 273 260 237 219 209 207 207
49 152 77 319 352 15 317 260 197 306 258 272 320 285 207 193 131 94 91 72 41 18 5 355 350 358 2 2 357 354 352 350 339 303 284 278 262 248 243 237 224 215 208 187
72 117 67 268 350 337 349 224 186 212 204 150 179 230 103 61 32 86 110 100 74 15 348 342 338 342 348 349 348 347 345 343 338 323 298 279 265 253 236 220 211 206 199 205
118 87 71 230 10 31 249 305 193 223 256 231 248 270 304 106 111 115 134 123 33 341 333 323 327 335 341 342 343 341 346 345 338 330 313 289 268 255 240 230 217 194 190 189
57 118 83 116 181 288 311 194 138 149 322 240 228 264 314 91 80 5 227 319 319 326 326 319 324 324 327 334 340 341 345 345 345 338 325 308 279 257 240 228 216 208 196 189
86 79 107 83 129 209 242 208 100 118 338 268 196 174 146 117 92 264 279 282 286 298 306 314 321 324 326 337 340 344 346 345 343 337 328 311 284 257 237 221 211 205 197 197
102 36 138 156 223 287 246 231 337 82 222 157 140 162 161 168 192 212 284 291 280 280 294 302 306 313 317 324 332 338 341 342 340 341 339 330 299 253 226 207 202 196 189 189
157 143 180 105 80 276 181 74 160 203 160 107 130 200 220 216 279 272 289 277 291 298 306 299 294 307 309 305 310 320 327 333 338 343 352 358 340 248 197 187 180 177 185 185
207 178 175 183 210 252 213 183 170 135 158 183 200 250 258 269 258 273 266 280 285 293 298 296 292 302 302 291 286 300 311 315 317 319 327 137 139 151 169 176 169 162 167 178
233 169 191 113 234 226 240 246 228 193 222 247 228 255 244 248 267 265 271 268 272 281 288 295 286 284 285 280 271 275 281 279 257 265 235 184 166 168 167 170 164 167 175 210
194 143 180 259 278 297 264 223 227 238 246 262 272 229 251 251 271 253 271 277 281 288 290 296 285 282 278 273 258 255 250 247 247 235 240 222 209 194 192 194 200 209 218 225
184 186 172 212 212 177 215 148 151 212 223 223 232 262 261 230 252 273 268 278 284 288 293 292 289 282 285 277 262 253 246 242 239 241 235 238 239 230 222 222 221 229 234 241